Hourly Weather Roundup
Issued by NWS Central Illinois

Home | Current Version | Previous Version | Text Only | Print | Product List | Glossary On
Versions: 1 2 3 4 5 6 7 8 9 10 11 12 13 14 15 16 17 18 19 20 21 22 23 24 25 26 27 28 29 30 31 32 33 34 35 36 37 38 39 40 41 42 43 44 45 46 47 48 49 50
000
NZUS43 KILX 292210
HWRILX

AREA WEATHER ROUNDUP
NATIONAL WEATHER SERVICE, LINCOLN IL
500 PM CDT TUE JUL 29 2014


CITY           SKY/WX    TMP DP  RH WIND       PRES   REMARKS
BLOOMINGTON    MOSUNNY   76  55  47 W13       30.08F
CHAMPAIGN      MOSUNNY   75  58  55 W13       30.07F
DECATUR        MOSUNNY   77  54  44 NW12      30.08F
FLORA          SUNNY     77  51  40 NW7       30.09F
GALESBURG      SUNNY     79  59  50 NW8       30.08F HX  80
JACKSONVILLE   SUNNY     78  57  48 NW6       30.11F
LACON          MOSUNNY   79  54  42 W9        30.03F
LAWRENCEVILLE  NOT AVBL
LITCHFIELD     MOSUNNY   75  56  53 NW6       30.10F
$$


CITY           SKY/WX    TMP DP  RH WIND       PRES   REMARKS
LINCOLN        MOSUNNY   79  56  44 W7        30.05F HX  80
MACOMB         MOSUNNY   76  59  54 W9G17     30.11F
MATTOON        SUNNY     76  56  49 W10       30.08F
MT CARMEL AP   SUNNY     79  54  41 W8        30.08F
OLNEY-NOBLE AP SUNNY     77  55  47 NW3       30.09S
PARIS          MOSUNNY   76  58  53 W13G18    30.07F
PEORIA         MOSUNNY   80  55  42 W12       30.07F HX  80
PONTIAC        MOSUNNY   79  57  47 W10       30.04S HX  80
RANTOUL        MOSUNNY   76  56  48 W10       30.06F
ROBINSON       SUNNY     78  59  51 NW12      30.08F
SPRINGFIELD    SUNNY     79  56  45 W6        30.09F HX  80
TAYLORVILLE    MOSUNNY   75  54  46 W7        30.09F
$$

...REGIONAL REPORTS...


CITY           SKY/WX    TMP DP  RH WIND       PRES   REMARKS
CHICAGO O`HARE PTSUNNY   80  50  34 NW12      29.99F HX  80
KANKAKEE       MOSUNNY   77  59  53 W10       30.02S
MOLINE         MOSUNNY   79  56  45 W13       30.05F HX  80
MOUNT VERNON   PTSUNNY   77  54  44 N5        30.11S
PITTSFIELD     MOSUNNY   78  54  43 W5        30.12F
QUINCY         SUNNY     77  55  46 NW6       30.11F
ROCKFORD       PTSUNNY   73  57  57 W14G26    30.03F
$$


CITY           SKY/WX    TMP DP  RH WIND       PRES   REMARKS
BURLINGTON     SUNNY     78  57  48 NW9       30.08F
CEDAR RAPIDS   MOSUNNY   77  54  44 NW12      30.07F
DES MOINES     MOSUNNY   80  52  37 W8        30.11F HX  80
KIRKSVILLE     MOSUNNY   79  55  43 VRB6      30.12F
OTTUMWA        SUNNY     77  55  46 W8        30.09F
ST LOUIS       MOSUNNY   81  56  42 NW9       30.11F HX  81
$$


CITY           SKY/WX    TMP DP  RH WIND       PRES   REMARKS
TERRE HAUTE    MOSUNNY   75  56  51 W8        30.06F
EVANSVILLE     MOSUNNY   79  53  40 VRB3      30.09F
INDIANAPOLIS   PTSUNNY   69  59  70 SW9       30.05F
LAFAYETTE      TSTM      65  59  81 VRB5      30.03R
MADISON        MOSUNNY   79  54  41 NW7       30.00F
MILWAUKEE      PTSUNNY   77  52  41 NW9       29.98F
$$





USA.gov is the U.S. government's official web portal to all federal, state and local government web resources and services.